Location: Unspecified
(30.2358°S, 0.0000°E)
Time: 20:11:38
(UTC+00:00)

NANOSAT C BR1 - Visible Passes

Search period start: 04 April 2026 00:00
Search period end: 14 April 2026 00:00
Orbit: 476 x 483 km, 98.1° (Epoch: 29 March)

Date Brightness Start Highest point End Pass type
(mag) Time Alt. Az. Time Alt. Az. Time Alt. Az.
4 Apr ? 18:26:24 10° E 18:26:55 11° E 18:27:45 10° ENE visible
4 Apr ? 20:00:44 28° W 20:00:44 28° W 20:03:21 10° NW visible
5 Apr ? 19:35:16 38° NNW 19:35:16 38° NNW 19:37:35 10° NNW visible
6 Apr ? 19:09:26 23° NNE 19:09:26 23° NNE 19:11:05 10° N visible
7 Apr ? 18:43:23 11° NE 18:43:23 11° NE 18:43:36 10° NE visible
8 Apr ? 19:51:27 11° NNW 19:51:27 11° NNW 19:51:37 10° NNW visible
9 Apr ? 19:25:10 11° N 19:25:10 11° N 19:25:20 10° N visible
10 Apr ? 05:49:55 10° E 05:51:00 11° ESE 05:52:06 10° SE visible
